User: anonymous   Login
Location: Unspecified
(64.9000°N, 0.0000°E)
Time: 01:57:07
(UTC+00:00)
Language:

Courier 1B - Orbit

View from above orbital plane
View from above orbital plane
View from above satellite
View from above satellite

Ground track
Ground track

The orbit data is extracted from the following two-line orbital elements,

1    58U 60013A   19168.19878875  .00000093  00000-0  92136-5 0  9999
2    58  28.3268 152.7262 0164914 277.0109  81.1706 13.46317869889758
Epoch (UTC): 17 June 2019 04:46:15
Eccentricity: 0.0164914
inclination: 28.3268°
perigee height: 963 km
apogee height: 1209 km
right ascension of ascending node: 152.7262°
argument of perigee: 277.0109°
revolutions per day: 13.46317869
mean anomaly at epoch: 81.1706°
orbit number at epoch: 88975

The dashed part of the orbit path shows where the satellite is in the earth's shadow,  

DLR